Find Feng Yun 3B

NORAD ID: 37214 Int'l Des: 2010-059 Owner: NSMC Country: CN operational
LEOCIRCULARRETROGRADESSO

当前视图

正在加载3D地球...

关于 Feng Yun 3B

正在加载描述...

即将过境

Passes for default location (London). Set your location on the main map for personalized predictions.

高度历史

Loading altitude history...

两行轨道根数

1 37214U 10059A 26150.20356580 .00000196 00000-0 12499-3 0 9999
2 37214 98.9633 196.1405 0021194 236.3061 204.0958 14.14837166804888
Epoch: May 30, 2026 • Age: 10 hours

当前状态

高度 856.0 km
速度 7.42 km/s
星下点 -35.39°S, 97.01°E
发射日期 Nov 4, 2010
运行时间 15.5 years
类型 other

技术详情

分类 Payload
质量 2200.00 kg
干质量 2130.00 kg
总质量 2200.00 kg
长度 4.40 m
直径 2.00 m
跨度 10.00 m
形状 Box + 2 Pan
制造商 SISE
平台类型 FY-3
阶段状态 In Orbit
所有者/国家 NSMC/CN

Most Searched